Regional Weather Roundup
Issued by NWS

Home | Current Version | Previous Version | Graphics & Text | Print | Product List | Glossary On
Versions: 1 2 3 4 5 6 7 8 9 10 11 12 13 14 15 16 17 18 19 20 21 22 23 24 25 26 27 28 29 30 31 32 33 34 35 36 37 38 39 40 41 42 43 44 45 46 47 48 49 50
252
ASUS44 KMEG 240510
RWRTN
TENNESSEE HOURLY STATE WEATHER ROUNDUP
NATIONAL WEATHER SERVICE MEMPHIS TN
1200 AM CDT WED MAY 24 2017

TNZ002-004-019-021-049-052-054-088>092-240600-
WEST TENNESSEE

CITY           SKY/WX    TMP DP  RH WIND       PRES   REMARKS
MEMPHIS INTL   LGT RAIN  62  61  96 W5        29.68S
NWS MEMPHIS      N/A     62 N/A N/A MISG        N/A
JACKSON        CLOUDY    67  56  67 W3        29.65F
DYERSBURG        N/A    N/A N/A N/A MISG        N/A
COVINGTON      CLOUDY    64  59  82 NW6       29.67R
UNION CITY     MOCLDY    66  59  77 N7        29.63F
BOLIVAR        CLOUDY    64  55  72 CALM      29.65F
PARIS          CLOUDY    66  55  68 CALM      29.63F
HUNTINGDON     MOCLDY    66  55  68 CALM      29.63F
LEXINGTON      CLOUDY    63  59  88 MISG      29.64F
SELMER         CLOUDY    63  61  94 CALM      29.64F
SAVANNAH       MOCLDY    61  61 100 CALM      29.64F
$$

TNZ008-025-027-028-033-062-065-066-240600-
NORTH MIDDLE TENNESSEE

CITY           SKY/WX    TMP DP  RH WIND       PRES   REMARKS
NASHVILLE      CLOUDY    67  58  72 CALM      29.64F
PORTLAND       CLOUDY    63  59  88 CALM      29.63F
CLARKSVILLE    CLOUDY    65  57  75 CALM      29.64F
SMYRNA         CLOUDY    65  60  84 CALM      29.65F
COOKEVILLE     PTCLDY    61  59  94 CALM      29.65S
GALLATIN       CLOUDY    64  59  82 CALM      29.66F
CROSSVILLE     MOCLDY    60  59  96 SE3       29.69F FOG
$$

TNZ061-075-076-078-094-096-097-240600-
SOUTH MIDDLE TENNESSEE

CITY           SKY/WX    TMP DP  RH WIND       PRES   REMARKS
FAYETTEVILLE   CLOUDY    64  63  94 SE5       29.66S
TULLAHOMA      CLOUDY    64  61  88 S3        29.68S
WINCHESTER     CLOUDY    63  63 100 CALM        N/A
MCMINNVILLE    CLOUDY    64  64 100 CALM      29.66F
COLUMBIA       CLOUDY    63  61  94 CALM      29.63F
SHELBYVILLE    CLOUDY    64  63  94 S3        29.65F
$$

TNZ017-018-042-046-047-240600-
NORTHEAST TENNESSEE

CITY           SKY/WX    TMP DP  RH WIND       PRES   REMARKS
TRI CITIES     CLOUDY    63  62  97 CALM      29.68F
ELIZABETHTON   CLOUDY    63  63 100 CALM      29.68F
$$

TNZ012-013-036-069-073-074-240600-
CENTRAL EAST TENNESSEE

CITY           SKY/WX    TMP DP  RH WIND       PRES   REMARKS
KNOXVILLE      CLOUDY    62  59  90 S3        29.66S
OAK RIDGE      CLOUDY    65  63  93 CALM      29.67F
DOWNTOWN KNOXV CLOUDY    63  63 100 SW6       29.66S
GATLINBURG     MOCLDY    61  59  94 CALM      29.66F
MORRISTOWN     CLOUDY    64  64 100 CALM      29.65S
JACKSBORO      CLOUDY    61  61 100 CALM      29.69F
$$

TNZ083-085-099-240600-
SOUTHEAST TENNESSEE

CITY           SKY/WX    TMP DP  RH WIND       PRES   REMARKS
CHATTANOOGA    CLOUDY    66  63  90 S5        29.67S
$$

SKY/WX REPORTED AS FAIR MEANS FEW OR NO CLOUDS BELOW
12 THOUSAND FEET.





USA.gov is the U.S. government's official web portal to all federal, state and local government web resources and services.